Content
SEND FEEDBACK

Daily
Averages
Monthly
Summary
United States of America

EARTH CITY, MISSOURI


Home > North America > United States > Missouri
Elevation: 476 feet     Latitude: 38 46N     Longitude: 090 30W

WEATHER
 
SELECT A DAY
Number of Records: 203,416;   Date Range: 1/1/95 - 7/26/14
 
SHARE

PRINT THIS DATA

[ ← Previous Day ]
WEATHER ALMANAC - FEBRUARY 22, 2013
[ Next Day → ]
[ °C ]   °F
Weather ElementAverageHighLow
Temperature32.6 °F36 °F (8:51 am)23 °F (11:51 pm)
Dewpoint25.7 °F30.9 °F (2:51 am)16 °F (9:51 pm)
Humidity76.2 %92 % (2:51 am)61 % (4:51 pm)
Barometer29.95 in30.11 in (9:51 pm)29.80 in (3:40 am)
Wind Speed9.6 mph16.1 mph (2:59 pm)
Wind Gust24.2 mph (12:51 pm)
Weather ElementAverage
Visibility8.6 mi
Wind DirectionWSW (237.5 °)

Weather ElementTotal
Precipitation---
Heating Degree Days35.5 (Base 65)
Averaged from 36 records on February 22, 2013
WEATHER CONDITIONS BREAKOUT
WIND DIRECTION BREAKOUT
WEATHER BY HOUR - FEBRUARY 22, 2013
[ °C ]   °F
Local TimeTemperatureDewpointHumidityBarometerVisibilityWind DirectionWind SpeedGust SpeedPrecipitationEventsConditions
1:11 AM33.8 °F30.2 °F87 %29.82 in4.0 miSSE (150°)6.9 mph0.00 inSnowLight Snow
1:18 AM33.8 °F30.2 °F87 %29.82 in5.0 miSE (140°)8.1 mph0.00 inSnowLight Snow
1:51 AM33.1 °F30.0 °F89 %29.85 in5.0 miSouth (180°)5.8 mph0.00 inSnowLight Snow
2:35 AM33.8 °F30.2 °F87 %29.82 in4.0 miSouth (190°)4.6 mph0.00 inSnowLight Snow
2:51 AM33.1 °F30.9 °F92 %29.85 in3.0 miSouth (180°)3.5 mph0.00 inSnowLight Snow
3:40 AM33.8 °F30.2 °F87 %29.80 in4.0 miSouth (180°)3.5 mph0.00 inOvercast
3:51 AM34.0 °F30.9 °F89 %29.84 in5.0 miSouth (190°)3.5 mph0.00 inOvercast
4:51 AM34.0 °F30.9 °F89 %29.85 in9.0 miSW (220°)8.1 mphOvercast
5:51 AM34.0 °F30.9 °F89 %29.87 in8.0 miSW (220°)8.1 mph0.00 inSnowLight Snow
6:06 AM33.8 °F30.2 °F87 %29.84 in9.0 miSSW (210°)6.9 mph0.00 inSnowLight Snow
6:37 AM35.6 °F30.2 °F81 %29.85 in9.0 miSSW (210°)8.1 mph0.00 inSnowLight Snow
6:51 AM35.1 °F30.9 °F85 %29.90 in9.0 miSW (220°)8.1 mph0.00 inSnowLight Snow
7:15 AM35.6 °F30.2 °F81 %29.87 in9.0 miSSW (210°)9.2 mph0.00 inSnowLight Snow
7:51 AM35.1 °F30.0 °F82 %29.91 in9.0 miSSW (210°)6.9 mph0.00 inLight Drizzle
8:51 AM36.0 °F30.0 °F79 %29.94 in10.0 miSSW (210°)8.1 mph0.00 inOvercast
9:51 AM36.0 °F28.9 °F76 %29.95 in10.0 miWSW (240°)15.0 mphOvercast
10:31 AM35.6 °F28.4 °F75 %29.94 in10.0 miWSW (240°)13.8 mphOvercast
10:51 AM35.1 °F27.0 °F72 %29.98 in10.0 miWest (260°)15.0 mphOvercast
11:51 AM34.0 °F27.0 °F75 %30.00 in10.0 miWSW (250°)12.7 mphOvercast
12:51 PM33.1 °F26.1 °F75 %30.00 in10.0 miWest (260°)12.7 mph24.2 mphOvercast
1:43 PM33.8 °F24.8 °F70 %29.98 in10.0 miWSW (250°)13.8 mphOvercast
1:51 PM34.0 °F24.1 °F67 %30.01 in10.0 miWSW (250°)15.0 mphOvercast
2:31 PM33.8 °F24.8 °F70 %29.99 in10.0 miWest (260°)12.7 mphOvercast
2:51 PM34.0 °F23.0 °F64 %30.02 in10.0 miWest (260°)15.0 mph23.0 mphOvercast
2:59 PM33.8 °F23.0 °F65 %29.99 in10.0 miWest (270°)16.1 mph21.9 mphOvercast
3:40 PM33.8 °F23.0 °F65 %30.00 in10.0 miWSW (250°)15.0 mphMostly Cloudy
3:51 PM33.1 °F23.0 °F66 %30.03 in10.0 miWest (270°)10.4 mph20.7 mphMostly Cloudy
3:58 PM33.8 °F23.0 °F65 %30.00 in10.0 miWest (270°)16.1 mph21.9 mphMostly Cloudy
4:51 PM33.1 °F21.0 °F61 %30.03 in10.0 miWest (280°)16.1 mphPartly Cloudy
5:51 PM30.0 °F19.9 °F66 %30.05 in10.0 miWNW (290°)9.2 mphPartly Cloudy
6:51 PM28.9 °F18.0 °F64 %30.07 in10.0 miWNW (300°)4.6 mphPartly Cloudy
7:51 PM27.0 °F18.0 °F69 %30.08 in10.0 miNW (310°)5.8 mphClear
8:51 PM25.0 °F17.1 °F72 %30.10 in10.0 miWNW (300°)3.5 mphClear
9:51 PM24.1 °F16.0 °F71 %30.11 in10.0 miWest (280°)9.2 mphClear
10:51 PM24.1 °F16.0 °F71 %30.11 in10.0 miWest (270°)5.8 mphClear
11:51 PM23.0 °F16.0 °F74 %30.10 in9.0 miWest (270°)6.9 mphPartly Cloudy
Hourly data recorded from KSTL, located miles away from Earth City, Missouri







STORIES FROM OUR PARTNERS